[[{"header":{"parameterUnit":"m.s-1","parameterCategory":1,"la1":30.2991,"la2":30.254,"lo1":-89.0895,"lo2":-89.0444,"dy":0.0017,"dx":0.0017,"nx":28,"ny":28,"refTime":"2026-01-09T03:00:00:Z","depth":0,"parameterNumber":2,"parameterNumberName":"U-component_of_WINDS"},"data":[0,0,0,0,0,0,0,0,0,0,0,0,0,0,0,0,0,0,0,0,0,0,0,0,0,0,0,0,0,0,0,0,0,0,0,0,0,0,0,0,0,0,0,0,0,0,0,0,0,0,0,0,0,0,0,0,0,0,-2.6603,-2.6604,0,-2.665,-2.6651,-2.6651,-2.664,-2.6639,-2.6639,-2.6638,-2.6688,-2.669,-2.6692,0,0,0,0,0,0,0,0,0,0,0,0,0,-2.6506,-2.6508,-2.6603,-2.6604,-2.6604,-2.665,-2.6651,-2.6651,-2.6641,-2.6639,-2.6638,-2.6637,-2.6687,-2.669,-2.6692,0,0,0,0,0,0,0,0,0,0,0,0,0,-2.655,-2.6509,-2.6603,-2.6604,-2.6605,-2.665,-2.6651,-2.6652,-2.6641,-2.6639,-2.6638,-2.6637,-2.6686,-2.6689,-2.6693,-2.674,0,0,-2.6703,-2.6704,0,0,0,0,0,0,0,0,-2.6548,-2.6554,-2.6604,-2.6604,-2.6605,-2.6638,-2.6635,-2.6681,-2.6641,-2.6627,-2.6638,-2.6636,-2.6672,-2.6677,-2.6689,-2.6742,-2.6744,-2.6703,-2.6705,-2.6706,-2.6707,0,0,0,0,0,0,0,-2.6545,-2.6552,-2.6622,-2.6604,-2.6605,-2.6603,-2.6608,-2.6644,-2.6657,-2.6628,-2.6628,-2.6633,-2.6673,-2.6686,-2.669,-2.6745,-2.6703,-2.6706,-2.6708,-2.6709,-2.6841,-2.6842,0,0,0,0,0,0,-2.6541,-2.6549,-2.662,-2.6623,-2.6572,-2.6606,-2.6612,-2.6629,-2.6656,-2.6659,-2.6634,-2.6633,-2.6681,-2.6686,-2.6691,-2.6749,-2.6706,-2.6709,-2.6711,-2.6839,-2.6841,-2.6843,0,0,0,0,0,0,-2.6539,-2.6547,-2.6618,-2.6586,-2.6595,-2.6609,-2.6629,-2.663,-2.6643,-2.6661,-2.6664,-2.6645,-2.668,-2.6687,-2.6728,-2.675,-2.6711,-2.6714,-2.6838,-2.684,-2.6842,-2.6863,0,0,0,0,0,0,-2.6536,-2.6547,-2.6564,-2.6587,-2.6597,-2.6653,-2.663,-2.6632,-2.6649,-2.6647,-2.6672,-2.6674,-2.6679,-2.6723,-2.6731,-2.6754,-2.6716,-2.6836,-2.6839,-2.6841,-2.6861,-2.6866,-2.6871,0,0,0,0,0,-2.6533,-2.6568,-2.6565,-2.6573,-2.6619,-2.6655,-2.666,-2.6665,-2.6651,-2.6668,-2.668,-2.6674,-2.6747,-2.6727,-2.6736,-2.676,-2.6834,-2.6838,-2.6841,-2.6858,-2.6865,-2.6871,0,0,0,0,0,0,-2.6548,-2.6571,-2.6568,-2.6611,-2.6631,-2.6653,-2.6675,-2.6672,-2.6696,-2.6693,-2.6698,-2.6704,-2.6746,-2.6758,-2.6736,-2.6808,-2.6789,-2.6794,-2.6799,-2.6805,-2.681,-2.6806,-2.6719,0,0,0,0,0,-2.6557,-2.6583,-2.6602,-2.6639,-2.6649,-2.6661,-2.6676,-2.6678,-2.6699,-2.6707,-2.6722,-2.6743,-2.6771,-2.6789,-2.6815,-2.6863,-2.6868,-2.6884,-2.6889,-2.6893,-2.6897,-2.6924,-2.6931,-2.6854,-2.6854,-2.6854,0,0,-2.6574,-2.659,-2.6607,-2.6643,-2.6658,-2.6686,-2.6668,-2.6698,-2.6719,-2.6712,-2.6751,-2.6763,-2.6787,-2.6832,-2.6852,-2.6843,-2.692,-2.6898,-2.6901,-2.6903,-2.6928,-2.6935,-2.6942,-2.6857,-2.6856,-2.6856,0,0,-2.6621,-2.6635,-2.6668,-2.6684,-2.6707,-2.6715,-2.6723,-2.6745,-2.6753,-2.6792,-2.6788,-2.6814,-2.6862,-2.6879,-2.6894,-2.6949,-2.6944,-2.6958,-2.6983,-2.7009,-2.7015,-2.702,-2.704,-2.7047,-2.6962,-2.6962,-2.6962,0,-2.664,-2.6681,-2.6685,-2.6716,-2.6732,-2.6727,-2.6761,-2.6776,-2.6808,-2.6819,-2.6809,-2.6869,-2.6885,-2.6933,-2.6947,-2.6959,-2.6969,-2.6954,-2.7014,-2.7019,-2.7024,-2.7043,-2.705,-2.6964,-2.6963,-2.6963,-2.6963,0,-2.6703,-2.6732,-2.6756,-2.6785,-2.6805,-2.6837,-2.6847,-2.6866,-2.6867,-2.6876,-2.6917,-2.6936,-2.6966,-2.6979,-2.698,-2.7028,-2.7021,-2.7012,-2.6992,-2.7033,-2.705,-2.7057,-2.6966,-2.6965,-2.6965,-2.6964,0,0,-2.6759,-2.6791,-2.68,-2.6814,-2.684,-2.6863,-2.6896,-2.6925,-2.6941,-2.6964,-2.6991,-2.7033,-2.7025,-2.7042,-2.7045,-2.7068,-2.711,-2.7056,-2.7057,-2.7065,-2.7165,-2.717,-2.7178,-2.7108,-2.7109,-2.711,-2.7162,0,-2.6807,-2.6863,-2.6868,-2.6919,-2.6946,-2.6943,-2.6971,-2.6991,-2.7001,-2.7027,-2.7038,-2.7067,-2.7054,-2.7065,-2.7087,-2.71,-2.713,-2.7097,-2.7133,-2.7135,-2.7126,-2.7188,-2.7194,-2.7242,-2.7169,-2.717,-2.7171,0,-2.687,-2.6894,-2.6947,-2.697,-2.6982,-2.7007,-2.7035,-2.7059,-2.7082,-2.7088,-2.7108,-2.7109,-2.7143,-2.7123,-2.7171,-2.7148,-2.7164,-2.7173,-2.7175,-2.7178,-2.7154,-2.7191,-2.7258,-2.7264,-2.7182,-2.7181,-2.7181,0,-2.6905,-2.695,-2.6988,-2.7,-2.7028,-2.7046,-2.7059,-2.7081,-2.7098,-2.7123,-2.7135,-2.7164,-2.718,-2.7203,-2.7212,-2.7196,-2.7259,-2.724,-2.7265,-2.7265,-2.7277,-2.7276,-2.7346,-2.729,-2.7289,-2.7289,-2.7289,0,-2.6957,-2.699,-2.7004,-2.7027,-2.7064,-2.7071,-2.7107,-2.7119,-2.7139,-2.7165,-2.7165,-2.719,-2.72,-2.7227,-2.7235,-2.7273,-2.7281,-2.7287,-2.7288,-2.7286,-2.7285,-2.7296,-2.7292,-2.7291,-2.7291,-2.729,-2.729,0,-2.7001,-2.7012,-2.7053,-2.7077,-2.7083,-2.7109,-2.713,-2.7153,-2.7163,-2.7197,-2.7205,-2.7221,-2.7253,-2.7265,-2.7303,-2.7308,-2.7353,-2.7352,-2.7345,-2.7345,-2.7369,-2.7366,-2.7447,-2.7458,-2.7395,-2.7396,-2.7396,0,-2.7033,-2.7058,-2.7085,-2.7102,-2.7115,-2.7143,-2.7161,-2.717,-2.7189,-2.7218,-2.7237,-2.7269,-2.7294,-2.7345,-2.7361,-2.7391,-2.739,-2.7416,-2.7394,-2.7392,-2.739,-2.7388,-2.739,-2.742,-2.7421,-2.7421,-2.7422,0,-2.7089,-2.7093,-2.7119,-2.7147,-2.7168,-2.7191,-2.7213,-2.7227,-2.724,-2.7261,-2.7293,-2.7313,-2.7353,-2.7384,-2.7415,-2.7429,-2.7428,-2.7429,-2.7436,-2.7434,-2.7428,-2.7431,-2.7355,-2.7426,-2.7426,-2.7426,-2.7425,-2.7425,-2.7128,-2.715,-2.7172,-2.7201,-2.7218,-2.7239,-2.7262,-2.7275,-2.7302,-2.7334,-2.7338,-2.7373,-2.7397,-2.7438,-2.7454,-2.7481,-2.7474,-2.7485,-2.7488,-2.749,-2.7491,-2.7425,-2.7487,-2.7487,-2.7487,-2.7487,-2.7487,0,-2.7183,-2.7197,-2.7224,-2.7255,-2.7278,-2.7274,-2.7299,-2.7319,-2.7349,-2.7371,-2.7396,-2.7433,-2.7464,-2.7483,-2.7514,-2.7533,-2.7533,-2.7541,-2.7539,-2.7542,-2.7496,-2.7486,-2.754,-2.754,-2.754,-2.754,-2.754,-2.754,-2.7214,-2.7251,-2.7259,-2.7305,-2.732,-2.7353,-2.7367,-2.7387,-2.7405,-2.7446,-2.7471,-2.7483,-2.7505,-2.7537,-2.7566,-2.7571,-2.7582,-2.759,-2.7594,-2.7551,-2.7545,-2.754,-2.7531,-2.7593,-2.7593,-2.7638,-2.7638,-2.7639]},{"header":{"parameterUnit":"m.s-1","parameterCategory":1,"la1":30.2991,"la2":30.254,"lo1":-89.0895,"lo2":-89.0444,"dy":0.0017,"dx":0.0017,"nx":28,"ny":28,"refTime":"2026-01-09T03:00:00:Z","depth":0,"parameterNumber":3,"parameterNumberName":"V-component_of_WINDS"},"data":[0,0,0,0,0,0,0,0,0,0,0,0,0,0,0,0,0,0,0,0,0,0,0,0,0,0,0,0,0,0,0,0,0,0,0,0,0,0,0,0,0,0,0,0,0,0,0,0,0,0,0,0,0,0,0,0,0,0,4.252,4.2521,0,4.2553,4.2554,4.2554,4.2556,4.2556,4.2555,4.2555,4.2588,4.2589,4.259,0,0,0,0,0,0,0,0,0,0,0,0,0,4.2461,4.2462,4.252,4.2521,4.2521,4.2553,4.2554,4.2554,4.2556,4.2556,4.2555,4.2555,4.2588,4.2589,4.2591,0,0,0,0,0,0,0,0,0,0,0,0,0,4.2489,4.2462,4.252,4.2526,4.2527,4.2553,4.2554,4.2554,4.2556,4.2556,4.2555,4.2555,4.2587,4.2589,4.2591,4.2613,0,0,4.2596,4.2597,0,0,0,0,0,0,0,0,4.2488,4.2491,4.2525,4.2526,4.2527,4.255,4.2545,4.2574,4.2556,4.2545,4.2555,4.2554,4.2576,4.2579,4.2586,4.2615,4.2616,4.2596,4.2598,4.2598,4.2599,0,0,0,0,0,0,0,4.2486,4.249,4.2533,4.2525,4.2526,4.2528,4.2531,4.255,4.2563,4.2546,4.2546,4.255,4.2576,4.2584,4.2587,4.2616,4.2596,4.2598,4.2599,4.26,4.2669,4.267,0,0,0,0,0,0,4.2482,4.2488,4.2532,4.2534,4.2505,4.2529,4.2533,4.2543,4.2563,4.2565,4.2551,4.255,4.2581,4.2585,4.2588,4.2618,4.2598,4.26,4.2601,4.2668,4.2669,4.267,0,0,0,0,0,0,4.2481,4.2486,4.2531,4.2511,4.2517,4.2531,4.2542,4.2544,4.2552,4.2566,4.2569,4.2556,4.2581,4.2585,4.2608,4.2619,4.2601,4.2603,4.2667,4.2668,4.2669,4.2676,0,0,0,0,0,0,4.2479,4.2486,4.2494,4.2512,4.2518,4.255,4.2543,4.2545,4.2555,4.2555,4.2572,4.2575,4.2581,4.2605,4.2609,4.2621,4.2604,4.2666,4.2668,4.2669,4.2675,4.2677,4.2679,0,0,0,0,0,4.2477,4.2493,4.2494,4.25,4.2529,4.255,4.2554,4.2561,4.2556,4.2565,4.2575,4.2574,4.2617,4.2607,4.2612,4.2625,4.2666,4.2667,4.2669,4.2674,4.2677,4.2679,0,0,0,0,0,0,4.2475,4.2496,4.2497,4.2519,4.2533,4.2551,4.2562,4.2563,4.2579,4.2578,4.2586,4.259,4.2612,4.262,4.2609,4.2649,4.2641,4.2643,4.2643,4.2646,4.2648,4.2646,4.2606,0,0,0,0,0,4.2478,4.2494,4.251,4.2529,4.2536,4.2548,4.2557,4.2562,4.2576,4.2582,4.2593,4.2608,4.2625,4.2635,4.2651,4.2676,4.2681,4.2687,4.2689,4.2691,4.2694,4.271,4.2714,4.2675,4.2675,4.2675,0,0,4.2482,4.2496,4.2505,4.2529,4.254,4.2557,4.2552,4.257,4.2583,4.2585,4.2607,4.2616,4.2633,4.2657,4.2669,4.2665,4.2706,4.2693,4.2695,4.2696,4.2712,4.2716,4.2719,4.2676,4.2676,4.2676,0,0,4.25,4.2511,4.2529,4.2541,4.2559,4.2567,4.2571,4.2589,4.2596,4.2619,4.2621,4.2637,4.2665,4.2678,4.2688,4.2714,4.2715,4.2719,4.2731,4.2747,4.275,4.2753,4.2765,4.2768,4.2722,4.2722,4.2722,0,4.2503,4.2529,4.2537,4.2556,4.2567,4.2571,4.259,4.2601,4.2623,4.2631,4.2627,4.2665,4.2676,4.2705,4.2712,4.2719,4.2726,4.2717,4.2749,4.2752,4.2755,4.2766,4.277,4.2722,4.2722,4.2722,4.2722,0,4.2534,4.2552,4.2564,4.2587,4.26,4.2618,4.263,4.2642,4.2647,4.2656,4.2681,4.2695,4.2715,4.2722,4.2725,4.2753,4.275,4.2747,4.2739,4.2759,4.277,4.2774,4.2723,4.2723,4.2723,4.2722,0,0,4.2549,4.2579,4.2583,4.2595,4.2617,4.2631,4.2651,4.2672,4.2683,4.2699,4.2717,4.2742,4.2741,4.2753,4.2758,4.2772,4.2795,4.2768,4.2768,4.2774,4.2829,4.2832,4.2837,4.2796,4.2797,4.2797,4.2828,0,4.257,4.2606,4.2615,4.2646,4.2664,4.267,4.2687,4.2703,4.2713,4.273,4.2741,4.276,4.2755,4.2763,4.2777,4.2789,4.2806,4.2787,4.2814,4.2815,4.2811,4.2842,4.2844,4.2873,4.2832,4.2833,4.2833,0,4.2599,4.2618,4.2651,4.2673,4.2681,4.2697,4.2719,4.2735,4.2754,4.276,4.2775,4.278,4.2802,4.2793,4.2825,4.2812,4.2824,4.2831,4.2833,4.2836,4.2826,4.2848,4.2882,4.2887,4.284,4.2839,4.2839,0,4.261,4.2643,4.2667,4.2677,4.2703,4.2715,4.2726,4.2745,4.2758,4.2777,4.2786,4.2807,4.2819,4.2836,4.2847,4.2839,4.2879,4.287,4.2887,4.2886,4.2895,4.2895,4.2933,4.29,4.29,4.29,4.29,0,4.2633,4.2653,4.2673,4.2688,4.2712,4.2724,4.2747,4.2759,4.2776,4.2795,4.28,4.2817,4.283,4.285,4.2859,4.2886,4.289,4.2897,4.29,4.2898,4.2897,4.2906,4.2905,4.2901,4.2901,4.2901,4.2901,0,4.2648,4.2662,4.269,4.2713,4.272,4.2737,4.2758,4.2773,4.2785,4.2808,4.2815,4.2832,4.2856,4.2869,4.2898,4.2904,4.2935,4.2935,4.2929,4.293,4.2947,4.2946,4.2993,4.3001,4.2962,4.2962,4.2962,0,4.2662,4.2678,4.2705,4.2719,4.2731,4.2752,4.2766,4.2779,4.2794,4.2819,4.2832,4.2857,4.2877,4.2915,4.2931,4.2954,4.2956,4.2972,4.296,4.2958,4.2959,4.2959,4.2962,4.2974,4.2974,4.2974,4.2974,0,4.2687,4.2694,4.2714,4.2739,4.2756,4.2775,4.2794,4.2805,4.2822,4.2838,4.2864,4.288,4.2911,4.2936,4.2962,4.2974,4.2978,4.2978,4.2984,4.2982,4.2979,4.2983,4.2936,4.2977,4.2977,4.2977,4.2976,4.2976,4.2703,4.2719,4.2741,4.2765,4.2782,4.28,4.2818,4.2832,4.2854,4.2881,4.2888,4.2915,4.2937,4.2971,4.2985,4.3007,4.3004,4.3011,4.3014,4.3016,4.3018,4.2975,4.3012,4.3012,4.3012,4.3012,4.3011,0,4.2729,4.2745,4.2767,4.2795,4.2814,4.2817,4.284,4.2856,4.288,4.2901,4.2922,4.2952,4.2978,4.2997,4.3023,4.3037,4.304,4.3044,4.3044,4.3047,4.3017,4.3011,4.3042,4.3042,4.3042,4.3042,4.3042,4.3042,4.2745,4.2774,4.2784,4.2822,4.2837,4.2865,4.2878,4.2896,4.2913,4.2947,4.2969,4.2982,4.3002,4.3031,4.3055,4.306,4.307,4.3074,4.308,4.3052,4.3049,4.3046,4.304,4.3076,4.3076,4.3108,4.3108,4.3109]}]]